Погода в Нерице

Россия / Республика Коми     65°18′10″N   52°41′22″E
темп.,
°C
ветер,
м/с
пор.,
м/с
влажн.,
%
обл.,
%
осадки,
мм/ч
давл.,
гПа
погр.,
м
18 апреля, вс
вс1800:00−6ссз51185100 0.1 1029619
03:00−8с498793 0.1 1033461
06:00−7ссв367532 0.0 1036463
09:00−4с34510 0.0 1037848
12:00−2с34465 0.0 10381221
15:00−1с444711 0.0 10381289
18:00−3с236053 0.0 1038924
21:00−4св147815 0.0 1039154
19 апреля, пн
пн1900:00−5ююв118077 0.0 103952
03:00−5ююз147992 0.0 1039162
06:00−3юз2566100 0.0 1038300
09:00+1зюз35506 0.0 1037827
12:00+4з46375 0.0 10351188
15:00+5з46395 0.0 10341228
18:00+2з375891 0.0 1033181
21:00−1зюз2875100 0.0 1033154
20 апреля, вт
вт2000:00−1з3107292 0.0 1032260
03:00−1з3117319 0.0 1032300
06:00+1з411675 0.0 1031410
09:00+5зсз48545 0.0 1031740
12:00+7зсз575464 0.0 10311020
15:00+8зсз45565 0.0 10311134
18:00+6сз237123 0.0 103178
21:00+3з118139 0.0 103110
21 апреля, ср
ср2100:00+2ююз11865 0.0 103110
03:00+1ююз22875 0.0 103120
06:00+3ююз24705 0.0 1031138
09:00+7ююз24490 0.0 1030491
12:00+11ююз35380 0.0 10291236
15:00+12ю46365 0.0 10281380
18:00+10ю374765 0.0 1026309
21:00+6юв31161100 0.0 1026260
22 апреля, чт
чт2200:00+5ююв41264100 0.0 1024379
03:00+4ююв41369100 0.0 1023402
06:00+5ююв51363100 0.0 1021690
09:00+7ю51256100 0.0 10201003
12:00+8ю61261100 0.0 10201012
15:00+8ю61262100 0.0 10201164
18:00+7ю51175100 0.0 10211013
21:00+6ю51277100 0.0 1021735